Tracking 25534 objects as of 28-Jan-2022
HD Live streaming from Space Station
objects crossing your sky now

TJS-9

Track TJS-9 now!


NORAD ID: 50574
Int'l Code: 2021-135A
Perigee: 35,785.0 km
Apogee: 35,805.3 km
Inclination: 0.1 °
Period: 1,436.2 minutes
Semi major axis: 42166 km
RCS: Unknown
Launch date: December 29, 2021
Source: People's Republic of China (PRC)
Launch site: Xichang Space Center, China (XSC)
aabbcc
Your satellite tracking list
Your tracking list is empty




NASA's NSSDC Master Catalog

Two Line Element Set (TLE):
1 50574U 21135A   22028.60943326 -.00000298  00000-0  00000-0 0  9990
2 50574   0.0672 246.0271 0002409  25.3909 212.9479  1.00266795   407
Source of the keplerian elements: AFSPC